When you browse on this site, cookies collect data to enhance your experience and personalize the content and advertising you see.
Visit our Privacy Policy to learn more. By continuing to use the site, you agree to this use of cookies and data.
  • In Hungary
  • List of Countries
  • For 7 days
  • Water Temperature
  • Satellite Maps
  • Weather Map
  • News
  • Weather Widgets
  • user-avatar
    Login

    Hourly Weather Strzelin

    Today, 18 November, Sunday

    Time Temperature Precipitation Wind Pressure Humidity
    00:00 -2°C° 0 mm 2 mps 761 mmHg 58%
    01:00 0°C° 0 mm 1 mps 760 mmHg 58%
    02:00 0°C° 0 mm 1 mps 760 mmHg 59%
    03:00 0°C° 0 mm 1 mps 760 mmHg 59%
    04:00 0°C° 0 mm 1 mps 759 mmHg 59%
    05:00 -1°C° 0 mm 1 mps 759 mmHg 59%
    06:00 -1°C° 0 mm 1 mps 758 mmHg 59%
    07:00 -1°C° 0 mm 1 mps 758 mmHg 59%
    08:00 0°C° 0 mm 1 mps 758 mmHg 54%
    09:00 +2°C° 0 mm 1 mps 758 mmHg 49%
    10:00 +2°C° 0 mm 2 mps 758 mmHg 45%
    11:00 +2°C° 0 mm 2 mps 757 mmHg 43%
    12:00 +3°C° 0 mm 2 mps 756 mmHg 41%
    13:00 +3°C° 0 mm 2 mps 755 mmHg 39%
    14:00 +3°C° 0 mm 2 mps 755 mmHg 41%
    15:00 +2°C° 0 mm 2 mps 754 mmHg 44%
    16:00 +2°C° 0 mm 2 mps 754 mmHg 46%
    17:00 +1°C° 0 mm 2 mps 754 mmHg 53%
    18:00 +1°C° 0 mm 2 mps 753 mmHg 60%
    19:00 +1°C° 0 mm 2 mps 753 mmHg 67%
    20:00 +1°C° 0 mm 2 mps 753 mmHg 74%
    21:00 +1°C° 0 mm 2 mps 753 mmHg 80%
    22:00 +1°C° 0 mm 2 mps 752 mmHg 86%
    23:00 +1°C° 0 mm 2 mps 752 mmHg 88%

    Tomorrow, 19 November, Monday

    Time Temperature Precipitation Wind Pressure Humidity
    00:00 +1°C° 0 mm 2 mps 752 mmHg 89%
    01:00 0°C° 0 mm 3 mps 752 mmHg 91%
    02:00 0°C° 0 mm 3 mps 752 mmHg 91%
    03:00 0°C° 0 mm 3 mps 751 mmHg 92%
    04:00 0°C° 0 mm 3 mps 751 mmHg 92%
    05:00 0°C° 0.1 mm 3 mps 751 mmHg 93%
    06:00 0°C° 0.1 mm 3 mps 750 mmHg 93%
    07:00 0°C° 0.1 mm 3 mps 750 mmHg 93%
    08:00 0°C° 0.1 mm 4 mps 750 mmHg 89%
    09:00 0°C° 0.1 mm 4 mps 750 mmHg 86%
    10:00 0°C° 0.1 mm 5 mps 751 mmHg 82%
    11:00 +1°C° 0.1 mm 5 mps 750 mmHg 80%
    12:00 +1°C° 0.1 mm 5 mps 750 mmHg 78%
    13:00 +1°C° 0.1 mm 5 mps 750 mmHg 76%
    14:00 +1°C° 0 mm 5 mps 750 mmHg 76%
    15:00 0°C° 0 mm 5 mps 750 mmHg 76%
    16:00 0°C° 0 mm 4 mps 750 mmHg 75%
    17:00 -1°C° 0 mm 4 mps 750 mmHg 78%
    18:00 -1°C° 0 mm 4 mps 750 mmHg 80%
    19:00 -2°C° 0 mm 4 mps 751 mmHg 82%
    20:00 -2°C° 0 mm 4 mps 751 mmHg 82%
    21:00 -2°C° 0 mm 4 mps 751 mmHg 83%
    22:00 -3°C° 0 mm 4 mps 751 mmHg 83%
    23:00 -3°C° 0 mm 4 mps 751 mmHg 83%

    Day after tomorrow, 20 November, Tuesday

    Time Temperature Precipitation Wind Pressure Humidity
    00:00 -3°C° 0 mm 4 mps 751 mmHg 82%
    01:00 -3°C° 0 mm 4 mps 751 mmHg 82%
    02:00 -3°C° 0 mm 4 mps 750 mmHg 81%
    03:00 -3°C° 0 mm 4 mps 750 mmHg 80%
    04:00 -3°C° 0 mm 4 mps 750 mmHg 79%
    05:00 -4°C° 0 mm 4 mps 750 mmHg 80%
    06:00 -4°C° 0 mm 3 mps 750 mmHg 80%
    07:00 -4°C° 0 mm 3 mps 749 mmHg 81%
    08:00 -3°C° 0 mm 4 mps 749 mmHg 77%
    09:00 -2°C° 0 mm 4 mps 749 mmHg 73%
    10:00 -1°C° 0 mm 5 mps 749 mmHg 70%
    11:00 0°C° 0 mm 5 mps 748 mmHg 68%
    12:00 0°C° 0 mm 5 mps 747 mmHg 65%
    13:00 +1°C° 0 mm 6 mps 747 mmHg 63%
    14:00 +1°C° 0 mm 5 mps 746 mmHg 64%
    15:00 0°C° 0 mm 5 mps 746 mmHg 65%
    16:00 0°C° 0 mm 5 mps 745 mmHg 67%
    17:00 0°C° 0.3 mm 5 mps 745 mmHg 70%
    18:00 -1°C° 0.3 mm 5 mps 745 mmHg 73%
    19:00 -1°C° 0.3 mm 5 mps 745 mmHg 77%
    20:00 -1°C° 0.7 mm 5 mps 745 mmHg 79%
    21:00 -1°C° 0.7 mm 4 mps 745 mmHg 82%
    22:00 -1°C° 0.7 mm 4 mps 745 mmHg 85%
    23:00 -1°C° 0.7 mm 4 mps 745 mmHg 87%

    21 November, Wednesday

    Time Temperature Precipitation Wind Pressure Humidity
    00:00 -1°C° 0.7 mm 4 mps 745 mmHg 89%
    01:00 -1°C° 0.7 mm 4 mps 745 mmHg 92%
    02:00 0°C° 0.3 mm 3 mps 745 mmHg 92%
    03:00 0°C° 0.3 mm 3 mps 745 mmHg 93%
    04:00 0°C° 0.3 mm 3 mps 745 mmHg 94%
    05:00 0°C° 0.1 mm 3 mps 745 mmHg 94%
    06:00 0°C° 0.1 mm 3 mps 745 mmHg 94%
    07:00 0°C° 0.1 mm 3 mps 746 mmHg 94%
    08:00 0°C° 0 mm 3 mps 746 mmHg 94%
    09:00 0°C° 0 mm 3 mps 747 mmHg 94%
    10:00 0°C° 0 mm 3 mps 747 mmHg 93%
    11:00 +1°C° 0.1 mm 3 mps 747 mmHg 93%
    12:00 +1°C° 0.1 mm 3 mps 748 mmHg 93%
    13:00 +1°C° 0.1 mm 3 mps 748 mmHg 93%
    14:00 +1°C° 0.1 mm 3 mps 748 mmHg 93%
    15:00 0°C° 0.1 mm 3 mps 748 mmHg 93%
    16:00 0°C° 0.1 mm 3 mps 749 mmHg 93%
    17:00 0°C° 0.1 mm 3 mps 749 mmHg 93%
    18:00 0°C° 0.1 mm 3 mps 749 mmHg 93%
    19:00 0°C° 0.1 mm 3 mps 750 mmHg 93%
    20:00 0°C° 0.1 mm 3 mps 750 mmHg 94%
    21:00 0°C° 0.1 mm 3 mps 750 mmHg 94%
    22:00 0°C° 0.1 mm 3 mps 750 mmHg 94%
    23:00 0°C° 0.1 mm 3 mps 750 mmHg 94%

    22 November, Thursday

    Time Temperature Precipitation Wind Pressure Humidity
    00:00 0°C° 0.1 mm 3 mps 750 mmHg 94%
    01:00 0°C° 0.1 mm 3 mps 750 mmHg 94%
    02:00 0°C° 0.1 mm 3 mps 750 mmHg 94%
    03:00 0°C° 0.1 mm 3 mps 750 mmHg 94%
    04:00 0°C° 0.1 mm 3 mps 750 mmHg 94%
    05:00 0°C° 0.1 mm 3 mps 751 mmHg 94%
    06:00 0°C° 0.1 mm 3 mps 751 mmHg 94%
    07:00 0°C° 0.1 mm 3 mps 751 mmHg 94%
    08:00 0°C° 0.1 mm 3 mps 751 mmHg 94%
    09:00 0°C° 0.1 mm 3 mps 751 mmHg 94%
    10:00 +1°C° 0.1 mm 3 mps 752 mmHg 94%
    11:00 +1°C° 0.1 mm 3 mps 752 mmHg 93%
    12:00 +1°C° 0.1 mm 3 mps 752 mmHg 93%
    13:00 +2°C° 0.1 mm 2 mps 752 mmHg 93%
    14:00 +2°C° 0 mm 2 mps 752 mmHg 94%
    15:00 +2°C° 0 mm 2 mps 752 mmHg 94%
    16:00 +2°C° 0 mm 2 mps 752 mmHg 95%
    17:00 +2°C° 0 mm 2 mps 752 mmHg 95%
    18:00 +2°C° 0 mm 2 mps 752 mmHg 95%
    19:00 +2°C° 0 mm 2 mps 752 mmHg 95%
    20:00 +2°C° 0 mm 2 mps 753 mmHg 95%
    21:00 +2°C° 0 mm 2 mps 753 mmHg 95%
    22:00 +3°C° 0 mm 1 mps 753 mmHg 95%
    23:00 +3°C° 0 mm 1 mps 753 mmHg 95%

    23 November, Friday

    Time Temperature Precipitation Wind Pressure Humidity
    00:00 +3°C° 0 mm 1 mps 753 mmHg 95%
    01:00 +2°C° 0 mm 1 mps 753 mmHg 95%
    02:00 +2°C° 0 mm 1 mps 753 mmHg 95%
    03:00 +2°C° 0 mm 1 mps 753 mmHg 94%
    04:00 +2°C° 0 mm 1 mps 753 mmHg 94%
    05:00 +3°C° 0 mm 1 mps 753 mmHg 94%
    06:00 +3°C° 0 mm 1 mps 753 mmHg 94%
    07:00 +3°C° 0 mm 1 mps 753 mmHg 94%
    08:00 +4°C° 0 mm 1 mps 753 mmHg 94%
    09:00 +5°C° 0 mm 1 mps 754 mmHg 94%
    10:00 +5°C° 0 mm 1 mps 754 mmHg 93%
    11:00 +6°C° 0 mm 1 mps 753 mmHg 92%
    12:00 +7°C° 0 mm 1 mps 753 mmHg 91%
    13:00 +7°C° 0 mm 1 mps 753 mmHg 90%
    14:00 +7°C° 0 mm 1 mps 753 mmHg 92%
    15:00 +6°C° 0 mm 1 mps 753 mmHg 93%
    16:00 +6°C° 0 mm 1 mps 753 mmHg 95%
    17:00 +6°C° 0 mm 1 mps 752 mmHg 95%
    18:00 +6°C° 0 mm 1 mps 752 mmHg 95%
    19:00 +5°C° 0 mm 1 mps 752 mmHg 95%
    20:00 +5°C° 0.1 mm 1 mps 752 mmHg 95%
    21:00 +4°C° 0.1 mm 0 mps 752 mmHg 95%
    22:00 +4°C° 0.1 mm 0 mps 752 mmHg 94%
    23:00 +4°C° 0.6 mm 0 mps 752 mmHg 95%
    Show more